Wind_Speed
4 3 1 3 2 8 8 13 10 7 9 10 15 10 11 9 12 12 10 9 9 11 14 27 33 35 34 39 37 38 37 32 27 22 14 12 13 14 15 15 14 13 11 10
3 3 4 11 10 11 9 12 1 8 5 7 6 12 12 9 12 14 13 11 13 8 11 14 23 32 34 40 39 38 35 29 23 18 15 13 17 18 17 15 13 13 11 8
4 3 4 8 13 15 7 4 2 3 4 2 3 2 2 6 7 12 14 14 13 15 13 8 16 28 29 29 37 35 31 26 21 21 18 16 18 20 18 14 15 14 10 8
3 5 3 9 16 19 8 13 2 0 3 2 4 2 1 4 9 8 12 11 11 11 13 10 14 22 27 29 29 28 25 22 24 23 24 26 23 24 23 18 17 14 12 11
3 5 0 6 14 11 7 11 6 5 2 4 2 4 6 5 5 5 9 11 15 17 18 16 16 28 32 29 28 25 23 22 25 22 28 26 25 23 19 19 18 16 13 10
8 5 5 5 7 8 3 2 4 5 3 2 10 5 4 7 18 4 6 4 9 10 14 13 22 24 27 30 26 24 25 25 22 27 26 25 18 20 23 24 22 16 13 10
3 8 3 4 10 6 6 4 3 5 6 4 4 5 8 8 9 17 17 14 5 9 12 14 14 18 21 23 22 25 25 26 28 19 19 16 18 18 17 17 15 11 9 9
6 3 2 5 4 4 5 3 4 4 1 5 5 4 5 3 7 14 14 8 6 9 10 13 13 19 22 24 23 24 29 29 25 19 15 14 14 14 14 12 10 7 4 5
4 3 4 7 5 4 1 4 6 5 2 3 4 3 4 6 6 8 10 9 8 9 8 10 15 24 27 27 24 21 23 26 24 20 18 16 15 14 13 9 7 7 3 2
2 4 3 7 5 8 5 4 2 3 2 3 4 3 3 6 5 6 9 9 9 9 9 8 13 23 28 27 22 18 14 25 25 24 23 19 16 12 5 7 4 5 6 3
6 4 2 6 2 11 2 3 2 4 5 5 1 4 2 8 8 9 9 13 12 10 10 9 12 24 30 31 27 26 19 25 24 24 21 20 15 9 8 3 2 6 4 5
8 5 4 14 20 14 6 6 6 5 5 3 5 5 2 7 8 9 8 12 13 13 12 10 15 24 27 30 31 32 23 27 25 24 21 17 10 5 2 4 5 8 6 2
2 2 3 1 4 3 3 5 4 3 4 4 5 5 3 6 5 5 5 8 10 12 10 10 10 17 22 25 25 26 25 25 23 19 14 5 6 6 5 11 9 7 3 3
7 0 5 6 6 4 4 5 6 4 4 4 6 4 10 8 8 7 6 4 8 12 13 12 11 16 20 21 23 25 27 28 25 17 12 9 6 6 9 7 3 4 5 7
4 4 1 4 5 5 4 1 5 4 5 6 8 7 10 2 7 1 4 0 3 6 7 9 8 9 22 25 24 27 30 26 20 17 13 10 11 7 7 4 4 5 9 12
1 3 3 1 5 7 4 6 6 6 6 5 3 4 4 7 7 8 7 7 8 8 8 8 11 15 19 23 27 27 26 22 18 21 17 12 8 6 3 2 6 9 11 9
6 4 3 2 4 6 6 7 5 6 4 3 3 5 9 9 9 7 8 9 7 7 8 7 8 14 20 26 31 28 26 25 24 20 14 9 7 3 3 8 14 14 13 14
6 5 3 3 3 1 8 2 5 5 5 8 8 9 9 8 10 12 8 10 9 8 8 8 13 21 23 26 28 29 28 24 19 16 15 12 9 7 9 13 13 14 15 14
4 5 2 4 4 5 8 2 3 4 4 5 7 7 6 7 10 8 8 8 7 8 12 18 23 27 29 30 30 29 24 22 20 17 15 13 10 11 16 17 16 18 15 14
6 5 5 2 4 6 6 4 4 3 1 5 8 8 8 6 4 3 7 9 11 19 21 25 27 29 32 28 30 30 24 20 16 12 11 2 10 16 15 16 17 15 13 14
3 3 5 2 2 7 5 6 1 6 6 4 7 6 8 5 5 4 7 15 24 23 27 30 31 27 26 26 26 25 23 19 11 2 8 12 10 13 14 15 16 15 16 17
7 6 3 3 2 6 6 4 6 5 4 7 6 6 6 5 5 7 15 16 21 23 26 26 28 26 26 23 21 16 11 2 5 9 11 9 12 14 14 16 18 17 17 18
2 7 6 7 6 5 9 12 6 8 7 5 7 7 7 7 5 13 15 16 20 23 23 24 23 20 17 13 10 8 4 4 7 11 13 12 14 16 16 17 18 19 21 21
2 4 4 5 1 10 12 9 8 8 8 11 10 8 5 5 12 15 14 13 18 19 18 17 16 13 10 8 7 5 6 8 11 10 13 17 16 17 19 20 21 21 21 20
5 4 6 5 9 13 10 6 8 11 13 14 16 15 13 17 14 15 12 13 16 15 15 13 11 8 5 6 8 8 7 9 13 17 16 16 17 20 21 21 21 23 24 14
1 4 4 4 4 8 5 6 12 15 13 12 14 14 15 16 13 16 12 14 14 14 12 9 5 5 7 7 9 10 11 13 13 16 20 24 25 24 24 27 30 25 24 21
Wind_Direction
210 76 262 257 212 240 243 239 235 255 190 174 200 180 179 184 156 158 165 162 157 148 162 157 151 156 151 163 160 169 168 169 175 171 172 180 177 162 149 141 130 129 128 137
48 126 259 302 315 284 255 282 309 343 233 157 159 194 184 178 173 167 168 165 166 143 143 147 137 151 154 162 166 173 173 176 188 190 194 193 174 163 155 145 140 144 144 147
113 206 253 300 312 311 328 336 304 197 324 11 63 97 309 207 166 176 178 175 167 155 153 149 144 149 156 160 168 169 175 183 190 187 191 177 168 157 158 162 163 178 173 157
197 201 241 298 282 291 220 265 199 169 81 228 53 228 278 293 209 187 178 179 168 161 155 161 150 129 148 158 171 175 179 190 190 191 183 179 177 170 178 185 177 174 165 174
245 151 19 269 262 213 205 221 193 195 199 352 312 107 266 218 255 281 214 184 178 172 165 168 151 147 154 164 174 184 188 194 191 200 180 177 176 181 195 185 177 179 187 204
205 147 187 227 250 243 92 18 55 84 143 186 227 118 290 215 225 216 247 252 169 162 165 155 156 152 160 171 185 188 188 198 193 180 179 181 192 170 153 160 169 182 197 200
214 224 201 183 267 23 57 50 359 8 10 240 341 125 235 231 214 206 211 237 169 131 131 145 154 157 168 179 187 194 200 195 172 159 180 179 163 163 160 156 158 153 142 129
159 329 348 10 332 180 58 107 153 149 202 281 162 235 250 182 195 199 196 198 171 132 140 153 161 163 163 177 198 190 175 166 174 174 165 163 159 145 146 148 150 137 110 74
158 353 334 340 340 305 147 84 269 131 304 57 253 33 18 96 66 118 171 177 143 140 146 146 142 151 158 161 166 170 167 171 173 175 178 162 162 160 148 150 147 134 112 169
138 119 353 263 317 320 166 194 184 334 157 261 315 333 185 138 149 134 147 156 161 158 159 157 155 159 162 165 171 182 182 179 179 180 178 169 166 164 131 130 117 297 223 248
140 127 292 25 238 238 250 260 268 153 143 173 167 282 173 173 158 180 189 174 171 168 172 168 166 170 172 174 178 190 202 183 178 165 159 156 151 134 153 188 267 158 195 251
189 132 151 224 244 255 178 195 180 123 265 191 147 269 169 146 173 177 208 184 177 172 174 174 173 170 174 177 181 190 186 175 166 156 149 139 129 135 174 216 176 260 224 240
130 242 78 271 286 330 232 234 220 175 98 195 133 258 229 173 162 178 189 182 173 176 175 177 169 177 173 176 169 164 152 150 147 149 139 109 106 126 200 224 213 160 181 267
99 345 149 188 215 230 270 216 263 174 114 208 203 251 301 245 198 203 207 140 180 178 181 185 183 178 156 143 151 144 146 151 141 134 121 131 139 202 151 132 177 280 273 291
117 169 279 295 313 334 296 351 331 316 227 150 236 211 252 332 122 164 172 303 163 160 198 194 146 130 133 142 146 137 138 138 134 126 122 112 105 68 23 333 253 262 291 300
233 204 128 318 338 20 15 332 312 301 301 325 342 266 232 178 112 84 74 64 72 43 41 101 129 140 144 141 138 134 132 129 128 122 116 100 89 29 323 258 295 314 307 274
150 133 87 234 357 9 350 248 237 245 275 246 278 297 67 59 59 61 61 54 57 78 64 101 141 153 148 142 139 136 135 132 119 104 87 75 57 164 255 299 309 293 288 292
151 122 101 175 41 35 242 295 118 114 50 63 77 80 80 69 54 54 50 74 49 45 56 79 96 95 105 121 124 127 122 110 96 97 101 93 80 27 332 304 278 277 297 291
83 108 96 135 185 290 316 143 152 133 38 34 73 62 84 95 63 24 15 43 58 66 73 81 89 99 104 105 108 106 103 102 98 91 89 74 14 311 283 275 290 291 273 285
57 85 122 133 146 203 236 155 41 65 61 13 61 47 45 48 68 286 352 39 41 72 81 86 83 83 87 89 98 88 82 77 76 78 75 299 265 276 280 284 287 291 282 287
43 9 145 133 181 287 243 136 108 96 221 73 65 61 70 87 158 165 61 74 75 73 79 82 79 76 78 85 87 78 76 71 70 58 261 294 289 284 293 301 302 298 292 288
159 141 198 104 101 276 177 78 133 193 64 79 64 56 60 65 126 101 91 82 77 79 75 76 78 74 75 74 75 74 69 85 256 287 306 293 286 292 297 298 296 294 290 283
129 172 175 163 210 229 73 100 82 86 92 60 69 46 45 39 38 99 94 89 82 82 82 82 83 83 81 77 64 58 39 341 305 288 296 297 296 297 297 291 290 293 293 288
89 141 114 86 287 94 89 73 74 73 75 74 50 39 34 31 96 95 91 90 89 88 88 92 92 89 77 51 21 347 311 291 295 289 290 297 294 294 293 290 292 290 289 284
201 115 143 104 109 83 51 58 87 68 78 76 61 58 66 91 82 95 92 91 94 90 82 74 63 50 16 335 316 315 309 299 291 289 286 285 289 293 293 290 289 288 288 274
120 164 138 207 123 104 102 80 87 83 81 78 84 73 67 82 95 97 90 84 81 79 78 66 28 342 342 350 342 327 316 307 297 285 282 283 284 287 287 290 292 289 276 279
Height
768 786 794 779 772 776 780 784 787 770 761 772 777 782 775 772 772 779 783 786 787 788 789 792 798 803 809 812 817 822 826 831 834 839 841 844 844 848 851 852 853 855 856 858
778 796 781 774 776 778 776 781 778 767 757 766 772 780 771 768 770 771 778 782 784 787 789 792 797 803 807 810 815 820 824 828 832 835 838 841 844 847 849 850 852 853 854 857
787 783 770 775 781 785 785 782 782 779 768 761 766 785 780 768 765 768 769 771 777 783 788 791 795 801 807 811 813 817 821 826 829 834 837 840 844 846 847 848 850 852 854 856
780 769 773 782 785 782 796 769 774 771 781 801 774 815 782 777 772 768 771 777 778 782 785 789 792 798 805 810 814 818 821 823 827 831 834 837 839 841 843 844 848 851 853 854
779 776 779 785 778 769 775 764 767 772 784 787 790 805 793 770 781 776 769 770 769 771 776 782 789 794 801 808 813 816 817 821 824 828 831 835 838 839 841 844 847 850 852 853
770 764 771 773 759 758 756 767 772 788 794 815 787 796 802 787 769 769 764 765 766 771 774 780 786 791 796 802 807 812 816 819 823 827 830 833 835 837 839 842 846 848 850 852
776 770 762 767 779 765 769 783 817 826 832 822 773 793 789 763 760 756 759 762 765 768 774 780 785 790 793 800 805 810 814 818 822 825 829 831 833 836 837 840 843 846 848 849
791 796 777 765 768 773 782 787 818 824 834 821 785 795 781 752 753 751 754 763 768 770 774 779 784 788 792 798 804 808 812 816 820 823 827 831 833 835 837 839 842 844 848 850
782 793 771 760 765 770 783 797 782 803 811 834 799 772 762 756 756 756 764 768 769 771 774 778 782 786 791 796 802 807 811 815 818 822 826 829 831 833 835 837 839 841 843 846
770 798 786 777 766 761 771 765 800 802 813 814 798 784 789 772 767 762 766 769 770 771 774 777 781 785 790 795 801 806 811 814 817 820 823 827 829 833 836 839 838 842 844 845
764 780 794 776 781 777 775 778 773 781 802 822 834 806 759 765 763 764 766 763 765 769 772 775 779 783 787 792 798 803 808 812 816 819 821 822 828 831 833 837 843 843 844 845
752 781 804 789 764 762 756 770 775 819 797 802 825 809 755 757 757 757 757 755 758 761 766 770 775 780 784 788 792 797 803 808 814 817 820 825 828 832 836 840 842 843 843 845
749 769 798 788 778 757 761 758 757 767 792 796 828 809 756 751 752 750 753 754 756 758 762 765 770 775 780 784 789 795 799 807 813 818 821 826 829 834 838 840 840 840 841 841
743 758 777 800 781 767 765 760 757 768 813 797 801 781 766 760 756 753 750 749 754 754 757 760 763 767 773 782 790 794 800 805 811 817 822 826 830 834 838 837 839 838 839 838
750 769 758 760 760 760 758 759 762 765 769 792 781 774 762 754 756 749 752 751 751 754 757 756 761 768 776 784 792 796 801 805 810 815 820 825 831 833 835 838 838 838 837 837
747 770 760 767 761 766 771 764 761 763 759 758 761 765 747 750 750 754 754 755 758 759 756 758 763 768 774 781 787 794 800 804 810 814 819 825 828 831 836 837 838 837 836 834
757 766 786 785 781 778 797 769 763 760 756 757 770 764 756 760 758 759 759 759 759 760 760 762 765 769 773 779 784 792 798 803 808 813 818 823 826 832 834 835 835 834 833 832
757 764 790 802 799 814 769 746 747 753 759 758 760 761 760 763 763 763 763 764 765 763 764 765 769 774 779 784 788 793 799 804 809 813 817 821 827 831 832 833 832 829 829 828
747 774 794 804 808 782 761 750 751 758 770 760 761 761 760 759 764 771 767 765 766 767 769 772 775 779 783 788 793 797 802 807 811 816 820 824 826 828 828 827 827 825 824 823
753 762 788 802 806 812 771 749 744 745 786 763 762 765 766 763 789 785 773 769 771 773 777 781 785 788 790 796 798 801 807 811 815 818 820 824 825 826 825 824 822 821 820 818
790 798 799 817 815 789 751 746 744 783 790 762 763 766 769 774 778 776 774 778 780 783 786 788 791 796 801 803 803 807 811 814 818 820 821 821 822 823 822 821 819 818 816 814
775 790 807 800 798 793 745 748 766 769 763 765 767 769 770 770 771 773 779 785 788 791 794 797 798 803 806 807 808 811 813 816 817 818 819 820 820 819 817 816 814 813 811 809
767 760 774 774 777 754 749 757 759 760 765 767 769 770 770 772 772 778 785 790 795 798 800 803 804 807 809 810 810 812 815 817 818 818 818 818 816 815 814 812 810 808 806 804
736 733 753 755 748 757 757 758 759 762 766 770 772 772 771 773 776 786 791 796 798 801 804 806 808 810 812 813 814 816 816 817 816 816 816 814 813 811 809 807 805 803 800 798
740 736 743 753 760 759 764 763 764 766 769 775 779 781 782 782 791 793 798 801 803 805 808 810 812 814 815 816 816 817 816 815 814 813 812 810 809 806 804 802 800 797 796 794
732 738 757 764 754 757 769 768 768 773 778 782 784 789 792 792 796 799 803 806 808 810 812 814 816 816 816 816 816 816 814 813 811 809 807 805 802 800 798 796 791 791 789 787